Probability
1 1 1 0 0 0 0 0 0 1 0 0 0 0 0 0 1 1 2 1 1 1 0 0 0 0 0 0 0 1 1 1 1 2 2 2 1 0 0 0 1 1 0
3 3 2 2 1 0 0 1 1 2 1 1 0 0 0 0 1 2 2 1 1 2 2 1 1 0 0 0 0 1 1 1 0 1 1 1 0 0 0 0 1 1 1
9 9 9 8 7 5 5 6 6 4 4 3 3 2 1 0 1 1 1 1 2 4 4 2 1 0 0 0 0 0 1 1 0 0 0 0 0 0 0 1 1 1 0
19 21 22 25 26 22 20 18 15 10 8 8 7 6 2 2 3 2 1 1 3 4 4 3 2 1 0 0 0 0 0 0 0 0 0 0 0 0 0 1 0 0 0
32 35 42 49 51 51 48 41 33 25 18 13 9 6 3 3 4 4 2 2 3 4 4 4 3 2 0 0 0 0 0 0 0 0 0 0 0 0 0 0 0 0 0
47 53 63 69 70 73 74 66 52 38 27 17 9 4 2 1 2 2 2 1 1 2 3 3 3 1 0 0 0 0 0 0 0 0 0 0 0 0 0 0 0 0 0
59 69 76 79 78 77 76 68 55 38 25 16 11 8 4 0 0 0 0 0 0 0 1 1 1 0 0 0 0 0 0 0 0 0 0 0 0 0 0 0 0 0 0
66 71 75 75 71 67 62 55 45 32 19 11 13 14 9 3 1 0 0 0 0 0 0 0 0 0 0 0 0 0 0 0 0 0 0 0 0 0 0 0 0 0 0
64 63 62 61 59 55 49 43 35 25 15 7 7 11 9 5 2 0 0 0 0 0 0 0 0 0 0 0 0 0 0 0 0 0 0 0 0 0 0 0 0 0 0
47 45 43 44 44 40 35 28 20 14 8 3 2 3 4 3 2 0 0 0 0 0 0 0 0 0 0 0 0 0 0 0 0 0 0 0 0 0 0 0 0 0 0
25 24 22 23 24 21 17 11 6 4 2 1 0 0 0 1 1 0 0 0 0 0 0 0 0 0 0 0 0 0 0 0 0 0 0 0 0 0 0 0 0 0 0
13 12 10 9 9 7 4 2 0 0 0 0 0 0 0 0 0 0 0 0 0 0 0 0 0 0 0 0 0 0 0 0 0 0 0 0 0 0 0 0 0 0 0
9 7 5 4 3 2 0 0 0 0 0 0 0 0 0 0 0 0 0 0 0 0 0 0 0 0 0 0 0 0 0 0 0 0 0 0 0 0 0 0 0 0 0
5 4 2 1 1 0 0 0 0 0 0 0 0 0 0 0 0 0 0 0 0 0 0 0 0 0 0 0 0 0 0 0 0 0 0 0 0 0 0 0 0 0 0
3 2 1 0 0 0 0 0 0 0 0 0 0 0 0 0 0 0 0 0 0 0 0 0 0 0 0 0 0 0 0 0 0 0 0 0 0 0 0 0 0 0 0
1 1 0 0 0 0 0 0 0 0 0 0 0 0 0 0 0 0 0 0 0 0 0 0 0 0 0 0 0 0 0 0 0 0 0 0 0 0 0 0 0 0 0
0 0 0 0 0 0 0 0 0 0 0 0 0 0 0 0 0 0 0 0 0 0 0 0 0 0 0 0 0 0 0 0 0 0 0 0 0 0 0 0 0 0 0
0 0 0 0 0 0 0 0 0 0 0 0 0 0 0 0 0 0 0 0 0 0 0 0 0 0 0 0 0 0 0 0 0 0 0 0 0 0 0 0 0 0 0
0 0 0 0 0 0 0 0 0 0 0 0 0 0 0 0 0 0 0 0 0 0 0 0 0 0 0 0 0 0 0 0 0 0 0 0 0 0 0 0 0 0 0
0 0 0 0 0 0 0 0 0 0 0 0 0 0 0 0 0 0 0 0 0 0 0 0 0 0 0 0 0 0 0 0 0 0 0 0 0 0 0 0 0 0 0
0 0 0 0 0 0 0 0 0 0 0 0 0 0 0 0 0 0 0 0 0 0 0 0 0 0 0 0 0 0 0 0 0 0 0 0 0 0 0 0 0 0 0
0 0 0 0 0 0 0 0 0 0 0 0 0 0 0 0 0 0 0 0 0 0 0 0 0 0 0 0 0 0 0 0 0 0 0 0 0 0 0 0 0 0 0
0 0 0 0 0 0 0 0 0 0 0 0 0 0 0 0 0 0 0 0 0 0 0 0 0 0 0 0 0 0 0 0 0 0 0 0 0 0 0 0 0 0 0
0 0 0 0 0 0 0 0 0 0 0 0 0 0 0 0 0 0 0 0 0 0 0 0 0 0 0 0 0 0 0 0 0 0 0 0 0 0 0 0 0 0 0
0 0 0 0 0 0 0 0 0 0 0 0 0 0 0 0 0 0 0 0 0 0 0 0 0 0 0 0 0 0 0 0 0 0 0 0 0 0 0 0 0 0 0
0 0 0 0 0 0 0 0 0 0 0 0 0 0 0 0 0 0 0 0 0 0 0 0 0 0 0 0 0 0 0 0 0 0 0 0 0 0 0 0 0 0 0
Wind_Speed
6 6 5 4 5 4 5 5 4 4 5 6 6 6 6 6 5 4 7 10 8 8 9 9 8 8 7 6 6 5 5 5 5 4 4 5 5 5 5 5 5 5 5
6 6 6 5 5 4 4 4 4 4 5 3 4 4 5 6 5 5 5 9 9 7 8 8 8 7 6 6 5 5 5 5 5 5 5 5 5 5 4 4 4 4 4
7 6 6 6 5 5 5 5 4 4 4 4 4 4 4 4 4 4 4 4 7 8 6 6 6 6 6 6 5 5 4 5 5 5 5 5 5 5 4 4 4 3 2
8 7 6 6 5 5 5 4 5 5 4 4 4 3 2 2 3 3 2 2 2 4 6 6 5 5 5 5 5 4 4 4 4 4 5 5 5 5 6 5 5 4 3
10 8 6 5 5 5 5 5 5 5 4 4 3 3 3 3 3 3 3 3 3 3 4 7 6 5 4 3 2 3 3 4 5 5 6 7 7 8 8 8 7 7 6
9 8 6 5 5 5 4 4 4 3 3 3 4 4 3 3 2 3 3 3 3 4 4 4 5 5 6 4 2 1 3 5 6 7 8 10 10 10 11 11 11 11 10
8 8 5 5 5 5 5 5 4 5 4 4 4 4 4 3 3 2 2 2 4 4 4 4 3 2 4 6 4 3 4 4 6 7 8 8 8 8 10 11 12 13 13
7 6 6 5 5 5 6 6 6 4 4 4 4 4 5 5 3 2 2 2 2 2 3 4 3 2 1 2 6 6 6 6 6 7 7 8 8 9 10 11 13 14 14
5 5 6 6 6 6 6 7 7 7 5 5 3 4 4 5 5 4 2 2 3 2 3 3 3 3 2 1 3 7 7 7 7 7 8 9 10 11 12 13 14 15 16
3 3 5 5 5 4 5 6 6 5 6 5 3 0 2 1 2 4 3 3 3 3 3 3 4 4 2 2 3 7 7 7 8 9 10 11 12 13 14 14 15 17 19
4 4 3 4 4 3 3 4 4 4 3 3 3 3 2 1 0 2 3 4 3 3 2 2 2 2 1 1 1 6 6 7 8 9 11 12 14 15 16 17 18 19 20
4 5 5 4 4 4 4 4 4 4 3 3 2 1 2 2 2 1 2 4 4 4 3 2 3 2 2 3 2 6 7 8 9 10 12 13 15 16 17 18 19 20 21
4 6 6 6 6 6 6 6 6 6 6 6 4 3 3 3 2 1 1 1 2 3 4 4 4 3 3 4 3 4 9 8 9 11 13 14 15 16 18 19 20 20 21
6 8 9 9 9 9 8 8 8 8 7 7 8 6 5 4 4 3 2 1 3 4 6 6 4 4 3 5 3 4 10 7 9 12 14 15 16 17 19 20 20 21 22
8 11 11 11 11 11 10 9 8 8 8 7 7 7 5 4 4 3 3 3 4 5 5 3 3 2 3 5 4 8 10 7 8 13 15 16 16 18 19 20 21 21 22
12 13 12 12 12 12 11 10 9 9 9 7 6 7 5 4 4 3 3 3 3 5 7 4 3 5 6 8 6 9 11 9 15 17 16 14 15 17 18 19 20 21 21
13 14 13 13 12 12 11 10 9 9 8 7 5 5 5 4 3 3 3 3 3 4 6 6 6 5 7 9 9 9 10 11 9 9 10 11 14 16 18 18 19 19 20
13 13 13 12 12 11 10 9 8 7 7 6 5 4 3 2 3 3 3 4 4 4 6 8 8 8 8 9 9 10 10 9 10 7 8 12 15 15 16 16 17 18 18
13 12 12 11 10 9 8 7 7 6 5 4 3 3 3 3 4 3 4 5 5 5 6 8 9 7 8 7 9 10 10 8 10 9 9 13 13 13 15 16 16 16 15
12 11 10 9 9 8 7 6 5 4 4 3 3 3 4 4 5 5 4 5 6 7 7 8 8 8 7 8 8 8 9 8 9 10 10 9 10 13 16 17 17 16 13
10 9 9 8 7 7 7 7 5 5 4 3 3 3 3 4 6 6 7 7 7 7 8 8 8 8 8 8 8 8 9 10 10 9 8 9 9 9 9 9 10 8 8
8 8 8 8 8 8 8 8 9 5 4 4 5 5 4 4 2 5 7 8 9 10 10 10 9 9 10 10 8 8 9 10 9 7 9 10 9 9 8 7 2 3 8
8 7 7 7 7 8 5 5 8 8 6 6 6 6 6 4 5 6 5 10 13 15 15 11 12 11 11 10 10 10 9 10 11 10 10 10 9 8 9 7 1 5 8
6 5 5 5 5 7 4 4 8 8 5 5 6 6 6 6 5 7 11 11 10 8 7 9 9 10 10 9 9 10 11 11 11 8 7 9 9 10 11 8 2 5 10
4 4 4 4 4 6 5 6 10 8 5 6 5 5 5 6 7 6 10 11 10 7 5 9 10 11 12 13 11 9 9 8 9 8 6 7 8 10 10 8 7 7 9
3 3 4 4 5 5 6 6 10 8 6 6 5 3 2 3 5 7 10 11 10 8 8 6 7 10 11 11 13 11 9 8 8 7 6 6 7 7 6 7 9 8 8
Wind_Direction
199 194 202 213 223 211 201 222 232 215 226 219 226 218 218 213 208 200 144 158 172 178 176 174 173 173 171 169 165 162 157 152 148 144 138 135 131 127 122 117 110 102 93
201 202 205 205 222 225 235 233 227 222 228 227 222 213 223 209 200 203 176 157 166 173 174 172 172 171 165 158 153 153 152 155 155 151 149 148 144 140 135 131 123 112 99
203 209 218 209 216 219 218 230 222 229 222 208 206 201 213 214 190 196 195 172 164 161 159 155 153 155 155 151 150 151 158 162 166 170 168 165 160 158 156 156 150 140 126
209 213 221 217 208 215 215 214 224 220 215 213 193 182 177 175 172 169 172 143 135 144 137 121 126 138 152 160 162 168 173 176 186 189 186 190 191 191 191 193 195 196 199
213 218 225 218 211 215 217 221 213 226 214 205 171 150 147 145 140 144 131 122 111 111 125 119 117 112 119 128 147 182 201 208 216 221 224 226 226 223 220 219 220 222 225
214 218 220 210 214 214 212 214 210 216 215 185 170 130 118 116 119 116 136 132 134 140 142 139 151 129 109 92 72 349 272 257 253 250 249 248 246 240 235 234 234 234 237
213 213 214 199 207 216 212 195 191 187 191 173 171 159 136 119 108 113 131 152 147 146 150 155 171 168 151 125 79 39 359 329 307 293 283 280 275 265 257 250 246 245 245
211 210 208 206 203 209 206 193 188 188 184 195 211 194 187 176 155 112 136 145 149 163 161 154 141 142 184 182 96 68 38 9 343 327 321 320 311 296 284 273 263 257 256
196 204 213 213 212 205 200 198 194 196 188 190 225 222 217 211 160 147 132 141 161 163 156 141 147 136 150 167 136 86 49 24 1 343 333 327 321 310 297 287 278 272 268
166 180 203 204 209 204 195 194 196 203 200 186 175 275 348 15 176 159 167 150 145 164 152 167 146 131 138 147 103 76 41 14 354 340 329 320 314 309 303 296 288 282 277
126 137 156 159 161 163 159 158 173 187 194 186 168 160 136 78 279 205 178 173 172 168 162 175 157 152 150 223 251 56 13 345 332 324 317 312 307 303 299 296 291 287 284
99 96 99 102 105 110 114 116 122 119 106 102 104 134 151 160 186 200 194 193 193 179 184 196 211 210 228 264 306 35 332 316 314 311 308 305 303 301 299 296 293 290 288
100 91 89 85 81 81 84 89 89 85 87 92 89 78 65 53 50 15 266 191 212 189 196 221 220 231 253 279 290 24 299 290 296 301 301 300 298 297 296 295 293 292 291
89 88 84 80 77 77 78 76 77 77 76 76 76 71 71 56 41 29 5 309 253 229 212 218 211 236 270 289 352 307 288 259 276 290 292 292 293 293 293 292 291 291 290
81 80 80 79 75 72 71 70 69 68 69 68 69 65 61 56 42 30 14 340 309 293 271 187 240 241 284 301 312 292 293 288 282 281 280 283 287 289 290 290 289 287 286
76 78 77 75 73 70 68 68 67 63 64 58 56 55 43 38 30 17 3 343 322 309 302 315 294 309 326 307 289 292 289 278 257 255 259 271 282 287 288 288 288 288 287
74 75 74 72 69 65 63 64 64 60 61 55 49 54 46 22 6 350 339 321 313 311 302 305 310 309 301 296 304 301 297 292 286 242 243 268 278 282 284 286 289 289 289
75 76 75 72 69 65 61 61 62 59 58 52 39 32 21 7 350 323 326 318 318 321 298 304 306 301 301 298 297 297 295 296 302 288 249 258 268 273 277 281 285 286 285
76 74 72 72 70 67 65 62 63 60 54 46 25 0 341 330 309 318 306 306 305 298 295 295 297 303 297 300 302 296 299 302 298 301 269 254 257 260 264 268 271 272 274
77 76 75 76 76 75 71 68 67 60 50 36 11 336 324 322 321 318 298 296 303 306 297 290 292 297 298 304 303 306 310 311 312 309 304 298 283 261 258 256 257 260 266
83 86 87 86 81 70 53 40 45 48 28 10 353 331 340 351 350 329 322 326 315 305 302 298 299 301 307 316 315 319 311 312 308 307 315 310 308 304 298 277 255 253 270
91 91 87 82 73 66 51 23 357 16 6 353 345 331 307 234 242 253 263 282 294 295 302 304 300 304 308 312 318 312 310 310 311 317 314 311 312 310 308 306 332 294 287
94 87 82 79 79 80 56 18 350 333 347 351 339 328 320 346 302 306 276 249 252 244 248 274 291 298 306 315 316 311 310 310 309 311 307 308 317 320 317 323 315 283 285
88 82 73 64 68 84 60 3 327 301 328 331 324 317 316 317 348 340 314 301 294 281 256 252 278 293 302 310 308 300 297 294 293 299 315 314 325 327 324 324 317 278 285
80 75 63 47 46 86 63 9 330 314 330 326 318 317 316 316 55 347 301 296 299 303 252 234 256 271 280 278 277 286 293 300 311 324 339 324 325 325 320 324 331 313 300
61 43 48 35 27 52 75 21 338 321 338 330 321 302 190 317 353 316 300 302 309 323 323 299 259 251 254 250 236 250 283 303 314 321 341 327 321 329 314 319 330 334 335